STARLINK-33722, 63571

Orbit data source: Space-Track

STARLINK-33722, 63571 is a payload satellite owned by SpaceX/Seattle (US) in LEO that was launched on Mon, 14 Apr 2025 UTC via an FALCON 9 launch vehicle from the Air Force Eastern Test Range (AFETR). Payload-class satellites include a variety of spacecraft equipped with specific instruments for various scientific and technological missions. These include communications satellites like Starlink; space stations such as the ISS; scientific satellites like the Hubble; Earth observation satellites from companies like Planet Labs, Umbra, and HawkEye 360; GPS; miniature CubeSats for education and research; and military/defense satellites.

Loading next visibility...
Identifier
63571, 2025-076C
Orbit
LEO
Country
Flag of USUS
Related business
Manufacturer
SpaceX/Seattle
Mission
Operational Commercial Communications
Bus & Motor
STARLINK V2MO, Unknown motor
Mass
575 kg wet, ~530 kg dry
Launch date (UTC)
2025-04-14 (7 months ago)
Launch vehicle
FALCON 9
Launch site
Air Force Eastern Test Range (AFETR)
Object type
Payload
Rocket body
Debris
Shape & HBR
Box + 2 Pan, 17.7 m
Radar Cross Section
36.964 m², Large (>1 m²)

Expand to show TLE details & history
Last TLE update: 10 hours ago

TLE from 10 hours ago
0 STARLINK-33722
1 63571U 25076C   25302.40557007  .00034110  00000-0  12424-2 0  9996
2 63571  43.0012 343.0011 0001210 254.5198 105.5520 15.27604758 31742
Epoch: 2025-10-29T09:44Z
TLE epoch observation values (Epoch: 2025-10-29T09:44:01.254Z)
Latitude
-0°
Longitude
159.01669°
Altitude
482.973 km
Speed
7.626 km/s
True Right ascension
22h 52m 00s
True Declination
0° 00' 00"
Sunlit
Object was in full shadow at epoch
Visualization orbit readout
Latitude
Unknown
Longitude
Unknown
Altitude
Unknown
Speed
Unknown
Apparent Right ascension
Unknown
Apparent Declination
Unknown
Sunlit
N/A
Visualization observer readout
Local Sidereal Time
15:35:17
Azimuth
Unknown
Elevation
Unknown
Doppler factor
Unknown
Orbital elements
Apogee altitude
485.75 km
Perigee altitude
484.09 km
Semi-major axis
6,863.057 km
Eccentricity
0.00012
Inclination
43.0012°
RAAN
343.0011°
Arg. of periapsis
254.5198°
True anomaly
105.56536°
Mean anomaly
105.552°
Eccentric anomaly
105.55868°
Mean motion
3.81739 °/min
Orbital period
94.31 mins
BSTAR
0.0012424
Loading maneuver chart data...
Computing Atmospheric mass density...
Loading historical data...
Loading historical data...
Loading historical data...
Loading historical data...
Loading historical data...
Loading historical data...
Loading historical data...

Documentation

Showing up to 5 results
|